Terug naar catalogus

STARLINK-33747

ActiefCommunicatieVLEO
NORAD 63444·PAYLOAD·🇺🇸 United States

Gelanceerd Apr 4, 2025 vanaf Vandenberg Space Force Base

Loading…

Volgende Passages (komende 24 uur)

TLE

VersSource: CelesTrak SupGP

Epoch: Sep 15, 2026, 03:32 UTC

1 63444C 25069M   26258.14770833  .00058671  00000+0  17334-2 0  2583
2 63444  53.1584 334.8048 0001160  90.3990 115.1396 15.34361961    13

Volg STARLINK-33747 in realtime met AllMySat

Download on the App Store